Temp
-8 -8 -8 -9 -9 -9 -9 -9 -9 -9 -9 -9 -9 -8 -8 -8 -8 -8 -8 -8 -8 -8 -8 -8 -6 -8 -8 -8 -8 -7 -7 -7 -7 -8 -8 -8 -7 -6 -7 -7 -7 -7 -7
-8 -9 -9 -9 -9 -9 -9 -9 -9 -9 -9 -8 -8 -9 -8 -8 -8 -7 -7 -8 -8 -8 -9 -8 -8 -9 -7 -7 -8 -7 -7 -7 -7 -8 -8 -8 -7 -7 -7 -7 -7 -7 -8
-9 -9 -9 -9 -9 -9 -9 -9 -9 -8 -8 -8 -8 -8 -8 -8 -8 -8 -7 -8 -8 -8 -8 -8 -8 -7 -8 -9 -8 -7 -7 -6 -6 -7 -9 -8 -7 -7 -7 -7 -7 -7 -8
-9 -9 -10 -10 -9 -9 -9 -8 -8 -8 -9 -9 -9 -8 -8 -8 -8 -8 -8 -8 -8 -8 -8 -9 -9 -7 -7 -6 -9 -8 -8 -7 -7 -6 -8 -8 -7 -7 -7 -7 -7 -7 -7
-10 -10 -10 -10 -9 -9 -9 -9 -9 -10 -10 -10 -10 -10 -9 -8 -8 -8 -8 -8 -8 -9 -9 -10 -9 -9 -9 -7 -7 -8 -8 -7 -7 -6 -7 -8 -8 -7 -8 -8 -8 -7 -7
-10 -10 -10 -9 -9 -8 -9 -9 -10 -10 -10 -11 -10 -10 -10 -9 -9 -9 -8 -8 -9 -10 -10 -10 -10 -9 -9 -7 -8 -6 -8 -6 -7 -6 -7 -8 -8 -7 -8 -8 -7 -7 -7
-10 -10 -10 -10 -9 -9 -10 -10 -10 -10 -9 -10 -9 -9 -10 -10 -10 -10 -9 -9 -9 -10 -10 -10 -9 -9 -9 -7 -5 -6 -6 -7 -7 -7 -7 -7 -8 -8 -8 -7 -7 -7 -7
-10 -10 -10 -10 -9 -9 -10 -10 -10 -10 -9 -10 -9 -9 -10 -10 -10 -9 -9 -10 -11 -11 -11 -10 -10 -10 -9 -7 -6 -6 -7 -6 -6 -6 -7 -8 -8 -8 -7 -7 -7 -7 -7
-11 -11 -10 -10 -10 -10 -10 -10 -10 -10 -9 -10 -9 -9 -10 -10 -10 -10 -10 -10 -11 -11 -11 -11 -11 -11 -10 -9 -6 -6 -6 -5 -7 -7 -7 -8 -8 -8 -7 -7 -7 -7 -7
-11 -11 -10 -11 -11 -11 -11 -11 -10 -10 -10 -9 -9 -10 -10 -10 -10 -10 -11 -10 -11 -11 -11 -11 -11 -11 -9 -10 -7 -6 -6 -7 -7 -8 -7 -7 -8 -8 -8 -7 -8 -8 -7
-11 -11 -11 -11 -12 -12 -12 -12 -11 -11 -10 -10 -10 -10 -10 -10 -10 -10 -10 -10 -10 -11 -11 -11 -11 -10 -10 -9 -9 -7 -8 -8 -9 -8 -8 -7 -7 -7 -8 -8 -8 -8 -8
-12 -12 -12 -13 -12 -12 -12 -12 -12 -11 -11 -10 -10 -10 -10 -10 -10 -10 -10 -10 -10 -10 -10 -10 -10 -10 -10 -10 -9 -9 -8 -8 -9 -8 -8 -8 -8 -7 -8 -8 -8 -8 -8
-13 -13 -13 -13 -13 -13 -13 -12 -12 -11 -11 -10 -10 -10 -9 -10 -10 -10 -10 -10 -10 -10 -10 -10 -10 -10 -10 -10 -10 -9 -9 -9 -9 -9 -9 -8 -8 -8 -8 -8 -8 -8 -8
-13 -13 -13 -13 -13 -13 -12 -13 -12 -12 -11 -11 -10 -10 -10 -10 -9 -9 -9 -10 -10 -10 -10 -10 -10 -10 -10 -10 -10 -10 -10 -10 -11 -10 -9 -9 -8 -9 -9 -8 -8 -9 -9
-13 -13 -13 -13 -13 -13 -13 -13 -13 -12 -12 -12 -11 -10 -10 -10 -10 -9 -9 -9 -10 -10 -10 -10 -11 -11 -11 -11 -10 -10 -10 -9 -9 -9 -9 -9 -9 -9 -9 -8 -8 -8 -8
-13 -13 -13 -13 -14 -13 -13 -13 -13 -13 -13 -13 -13 -12 -11 -10 -10 -10 -10 -10 -10 -10 -11 -11 -11 -11 -11 -10 -9 -9 -9 -9 -10 -10 -10 -9 -9 -9 -9 -9 -9 -9 -8
-13 -14 -14 -15 -14 -14 -13 -13 -13 -13 -13 -12 -14 -13 -13 -13 -12 -11 -11 -11 -11 -11 -11 -11 -11 -11 -11 -10 -10 -10 -10 -10 -9 -9 -9 -10 -10 -10 -9 -9 -9 -9 -9
-14 -14 -14 -15 -16 -14 -14 -13 -14 -13 -13 -13 -13 -13 -13 -13 -13 -13 -12 -12 -12 -12 -12 -12 -11 -11 -11 -11 -11 -10 -10 -10 -11 -10 -11 -11 -10 -11 -11 -11 -11 -10 -10
-14 -14 -15 -15 -16 -17 -15 -14 -14 -13 -13 -13 -13 -13 -13 -13 -12 -12 -12 -12 -12 -12 -12 -12 -12 -12 -12 -12 -11 -11 -11 -12 -13 -13 -12 -12 -13 -12 -13 -13 -13 -13 -12
-14 -15 -15 -15 -15 -15 -15 -14 -14 -13 -13 -13 -13 -13 -13 -13 -13 -13 -13 -13 -13 -12 -12 -12 -12 -12 -12 -12 -12 -12 -12 -12 -12 -12 -12 -12 -13 -13 -12 -12 -12 -12 -12
-15 -14 -14 -14 -14 -14 -15 -14 -14 -14 -14 -13 -13 -13 -13 -13 -13 -13 -13 -13 -13 -12 -12 -12 -12 -12 -12 -12 -12 -12 -12 -12 -12 -12 -12 -12 -12 -12 -12 -12 -12 -12 -12
-14 -14 -14 -14 -14 -15 -14 -14 -14 -14 -14 -14 -14 -14 -14 -14 -13 -13 -13 -13 -13 -13 -13 -13 -13 -13 -13 -13 -13 -12 -12 -12 -13 -13 -13 -13 -13 -13 -13 -12 -12 -12 -12
-15 -15 -15 -15 -15 -15 -15 -15 -15 -14 -14 -14 -14 -14 -14 -14 -14 -14 -14 -14 -14 -14 -14 -13 -13 -13 -13 -13 -13 -13 -13 -13 -13 -13 -13 -13 -13 -13 -14 -13 -13 -13 -13
-15 -15 -15 -15 -15 -15 -15 -15 -15 -15 -15 -14 -14 -14 -14 -14 -14 -14 -14 -14 -14 -14 -14 -14 -14 -14 -14 -14 -14 -14 -14 -14 -14 -14 -14 -14 -14 -14 -14 -14 -14 -14 -14
-15 -15 -16 -15 -15 -15 -15 -15 -15 -15 -15 -15 -15 -15 -15 -14 -14 -14 -14 -14 -14 -14 -14 -14 -14 -14 -14 -14 -14 -14 -14 -14 -14 -14 -14 -14 -14 -14 -14 -15 -15 -14 -14
-15 -15 -15 -15 -15 -15 -15 -15 -15 -15 -15 -15 -15 -15 -15 -15 -15 -15 -15 -15 -15 -15 -15 -15 -15 -15 -15 -15 -15 -15 -15 -15 -15 -15 -15 -15 -15 -15 -15 -15 -15 -15 -15
Height
5854 5850 5847 5842 5838 5834 5830 5826 5822 5819 5817 5816 5814 5812 5812 5812 5813 5814 5817 5819 5820 5822 5825 5824 5814 5831 5835 5838 5839 5842 5846 5849 5853 5854 5855 5855 5859 5863 5864 5866 5868 5869 5869
5842 5838 5834 5829 5825 5821 5816 5811 5806 5802 5798 5795 5795 5794 5793 5794 5798 5798 5802 5803 5805 5808 5809 5812 5811 5820 5818 5825 5828 5833 5839 5840 5844 5849 5847 5848 5850 5854 5857 5859 5860 5863 5864
5832 5827 5821 5816 5811 5806 5800 5795 5790 5785 5781 5777 5774 5774 5775 5775 5778 5782 5785 5787 5789 5795 5797 5799 5801 5803 5811 5806 5814 5813 5829 5833 5834 5838 5842 5841 5842 5846 5849 5851 5854 5856 5857
5821 5816 5810 5804 5798 5792 5786 5779 5773 5767 5762 5757 5754 5753 5754 5758 5760 5764 5768 5771 5773 5777 5782 5783 5786 5793 5794 5798 5797 5807 5817 5823 5824 5829 5833 5833 5833 5837 5842 5845 5847 5850 5853
5811 5804 5798 5792 5785 5778 5771 5763 5755 5748 5743 5737 5733 5732 5734 5739 5743 5745 5749 5755 5758 5760 5765 5767 5771 5774 5780 5788 5792 5798 5804 5806 5810 5817 5824 5826 5826 5830 5835 5834 5839 5842 5845
5799 5793 5786 5780 5773 5765 5757 5748 5740 5731 5726 5721 5714 5713 5715 5720 5725 5728 5732 5739 5745 5750 5753 5758 5762 5766 5771 5774 5779 5786 5791 5795 5799 5805 5814 5818 5816 5819 5823 5827 5830 5834 5838
5788 5781 5775 5769 5761 5752 5744 5734 5725 5719 5713 5705 5698 5697 5701 5705 5710 5714 5718 5722 5729 5736 5741 5744 5748 5753 5759 5763 5766 5771 5776 5781 5789 5794 5803 5809 5807 5811 5814 5817 5822 5826 5828
5779 5772 5766 5758 5749 5739 5731 5722 5715 5706 5700 5691 5688 5689 5693 5695 5698 5702 5705 5708 5715 5723 5729 5733 5735 5739 5744 5747 5753 5756 5764 5771 5778 5784 5793 5797 5799 5801 5804 5808 5813 5819 5822
5769 5761 5754 5746 5737 5728 5721 5714 5706 5698 5689 5685 5682 5685 5687 5688 5691 5693 5697 5702 5708 5714 5717 5721 5725 5729 5733 5737 5741 5748 5752 5757 5766 5774 5780 5784 5788 5793 5794 5797 5803 5805 5809
5758 5751 5743 5736 5727 5720 5712 5706 5699 5692 5683 5679 5678 5680 5682 5684 5685 5686 5692 5698 5702 5706 5708 5712 5716 5720 5724 5728 5732 5739 5744 5750 5755 5761 5767 5773 5777 5781 5785 5788 5792 5795 5798
5749 5741 5734 5726 5719 5713 5707 5701 5694 5689 5680 5679 5676 5677 5678 5679 5682 5685 5688 5690 5693 5696 5702 5705 5710 5714 5717 5720 5723 5730 5735 5738 5742 5747 5754 5761 5766 5772 5777 5779 5782 5784 5787
5739 5732 5724 5717 5712 5708 5703 5697 5691 5685 5680 5676 5675 5676 5676 5677 5679 5681 5684 5686 5689 5692 5695 5698 5702 5708 5710 5713 5718 5722 5724 5729 5730 5735 5743 5749 5754 5762 5765 5767 5770 5772 5773
5730 5724 5720 5712 5706 5703 5700 5694 5686 5682 5677 5673 5673 5675 5675 5674 5676 5678 5680 5683 5686 5688 5691 5693 5696 5700 5703 5706 5710 5714 5717 5722 5723 5727 5732 5738 5743 5747 5752 5754 5756 5757 5760
5722 5717 5711 5705 5701 5698 5696 5691 5687 5682 5676 5671 5670 5671 5673 5673 5672 5670 5677 5683 5684 5686 5688 5689 5692 5696 5698 5700 5703 5705 5710 5713 5715 5718 5722 5726 5731 5735 5738 5741 5737 5743 5746
5717 5711 5704 5699 5696 5694 5693 5691 5687 5682 5677 5670 5667 5669 5671 5672 5673 5663 5672 5681 5683 5685 5687 5689 5690 5692 5694 5696 5698 5699 5700 5704 5707 5710 5713 5716 5719 5723 5724 5726 5726 5731 5732
5712 5706 5700 5694 5691 5691 5690 5689 5686 5683 5679 5675 5671 5668 5667 5670 5670 5670 5676 5679 5680 5683 5685 5687 5687 5689 5689 5693 5690 5689 5691 5696 5701 5703 5704 5706 5708 5710 5712 5713 5715 5716 5719
5708 5702 5698 5691 5687 5687 5688 5686 5685 5682 5680 5678 5675 5672 5672 5670 5669 5671 5673 5678 5679 5681 5682 5683 5685 5686 5686 5686 5688 5686 5686 5690 5694 5694 5692 5695 5698 5699 5701 5703 5702 5705 5706
5702 5698 5695 5691 5685 5683 5683 5682 5681 5681 5680 5678 5676 5677 5675 5673 5674 5675 5679 5680 5681 5681 5682 5682 5683 5684 5682 5683 5683 5684 5683 5683 5686 5686 5685 5686 5689 5690 5690 5690 5692 5693 5692
5697 5695 5693 5690 5686 5684 5683 5681 5680 5680 5679 5679 5677 5676 5675 5674 5675 5675 5677 5677 5676 5678 5680 5681 5680 5681 5680 5680 5681 5681 5682 5681 5681 5680 5682 5681 5684 5687 5686 5686 5688 5687 5688
5692 5691 5690 5687 5686 5684 5683 5681 5679 5679 5678 5677 5676 5676 5676 5676 5676 5676 5677 5677 5677 5678 5678 5678 5679 5678 5678 5677 5677 5678 5678 5677 5677 5678 5677 5677 5679 5681 5682 5681 5682 5681 5682
5686 5687 5685 5684 5682 5682 5681 5681 5680 5679 5677 5676 5676 5676 5675 5675 5675 5675 5674 5674 5674 5675 5674 5674 5674 5674 5674 5673 5672 5671 5672 5672 5671 5671 5670 5671 5672 5672 5672 5672 5671 5671 5672
5681 5681 5681 5680 5679 5679 5679 5679 5678 5677 5676 5675 5674 5673 5672 5671 5670 5670 5670 5670 5669 5668 5668 5668 5668 5668 5668 5668 5667 5666 5665 5664 5664 5664 5664 5664 5663 5663 5662 5661 5661 5661 5661
5676 5676 5676 5676 5677 5676 5677 5676 5676 5675 5673 5672 5671 5671 5669 5669 5668 5667 5667 5666 5665 5664 5662 5661 5660 5659 5658 5658 5658 5657 5656 5655 5654 5653 5652 5651 5650 5649 5648 5647 5646 5647 5647
5671 5672 5671 5672 5673 5673 5673 5673 5672 5671 5670 5669 5669 5667 5666 5665 5664 5662 5660 5659 5658 5656 5655 5654 5652 5651 5649 5648 5646 5644 5643 5642 5640 5639 5638 5637 5636 5635 5634 5633 5632 5632 5630
5666 5666 5667 5667 5667 5668 5668 5668 5668 5667 5665 5663 5662 5661 5660 5659 5658 5655 5654 5652 5650 5649 5647 5645 5643 5641 5640 5638 5635 5633 5630 5628 5626 5625 5623 5622 5620 5619 5618 5616 5615 5614 5614
5661 5661 5661 5660 5660 5660 5660 5661 5660 5659 5658 5657 5655 5653 5651 5650 5649 5647 5646 5644 5641 5638 5636 5634 5631 5629 5627 5624 5622 5620 5617 5614 5611 5609 5607 5605 5603 5601 5599 5598 5596 5595 5593
Wind_Speed
43 44 45 48 50 52 53 54 54 55 55 55 55 55 55 55 53 54 53 54 56 56 53 58 50 51 46 48 44 42 40 38 34 34 35 33 32 32 30 30 27 24 24
48 49 51 52 52 52 52 52 52 52 53 53 52 53 54 56 56 57 55 55 57 56 57 59 63 57 59 51 51 45 43 39 37 33 40 36 33 32 30 30 28 26 27
52 52 52 53 53 51 51 52 54 54 54 56 57 55 54 56 56 56 57 57 56 57 59 59 60 57 61 54 55 60 45 41 38 38 39 38 35 31 31 32 30 27 27
52 52 53 52 51 51 54 54 56 58 58 57 55 55 55 54 56 57 56 56 57 56 57 59 60 59 64 54 52 40 46 45 39 40 41 42 37 34 33 32 31 28 26
52 54 53 51 50 53 55 59 59 53 53 50 52 52 52 51 53 54 56 54 54 56 54 53 55 54 52 51 55 44 57 51 44 42 43 46 39 35 33 37 35 32 29
53 53 52 47 51 55 58 57 52 50 38 44 46 46 48 45 47 48 52 53 50 48 51 51 50 49 45 52 59 56 50 51 47 45 44 44 41 39 39 39 37 34 30
50 52 47 50 54 57 57 51 47 39 46 49 35 34 35 35 37 40 44 47 42 43 46 47 50 46 43 49 53 47 49 52 54 48 46 43 41 41 41 41 39 37 35
48 48 51 54 56 58 53 47 43 44 45 32 24 22 24 28 29 28 31 38 40 38 39 43 45 42 38 38 45 39 38 39 57 50 48 45 42 47 43 41 39 36 37
48 51 54 55 54 50 44 40 41 39 42 23 17 19 18 22 25 28 29 29 29 31 34 35 35 36 34 37 35 35 32 35 58 53 49 48 47 50 47 45 42 41 40
49 52 52 48 47 42 38 37 37 30 24 18 14 16 17 19 24 22 23 22 25 28 30 32 34 35 35 32 32 35 30 44 54 54 51 51 52 53 53 49 47 43 44
47 47 47 43 38 37 34 36 34 28 14 12 10 10 12 15 16 17 20 22 24 26 27 27 29 32 33 30 29 35 36 44 47 58 58 55 55 56 55 53 51 50 48
44 44 37 36 33 32 29 28 33 26 21 16 14 11 10 13 20 19 20 19 20 23 24 26 29 31 31 27 24 28 27 38 45 52 58 60 58 58 56 58 56 55 54
41 34 33 35 29 24 21 24 29 22 16 10 14 14 12 11 14 16 14 13 12 19 18 24 28 30 29 28 30 34 37 39 40 40 49 56 58 61 63 64 62 61 61
36 33 35 29 30 23 19 18 22 20 5 1 15 11 12 11 7 15 8 5 7 9 11 13 15 17 22 27 29 28 29 28 29 31 34 43 55 61 63 49 58 64 63
32 31 33 35 25 21 25 19 17 17 14 12 6 16 14 15 12 22 23 10 6 7 9 11 13 15 18 22 26 31 33 31 31 34 37 38 39 42 48 56 49 49 48
28 28 32 36 20 18 19 16 9 12 16 15 15 12 4 13 25 30 18 19 13 11 12 14 14 15 21 15 21 30 26 32 34 35 36 29 31 39 39 39 43 41 40
25 24 27 20 14 22 20 9 7 9 8 7 11 13 12 12 13 7 6 9 9 11 13 13 8 9 13 22 23 14 17 32 29 24 39 44 41 30 38 48 35 45 47
23 21 19 17 14 6 15 8 3 6 6 7 5 2 4 4 3 2 2 2 2 3 9 18 13 10 11 13 15 20 25 24 14 24 17 19 26 23 20 21 23 30 26
20 18 12 13 8 8 7 5 4 5 5 5 4 5 4 4 6 7 8 8 8 11 13 15 15 14 13 13 14 12 12 13 16 15 17 16 14 17 16 14 16 17 20
17 17 12 11 8 8 7 5 5 6 6 6 6 6 6 6 6 7 9 9 9 10 11 12 12 13 14 16 17 17 17 16 15 16 17 17 19 19 23 23 24 24 24
15 16 13 9 9 8 7 7 5 5 6 6 5 6 6 7 8 10 11 12 13 15 16 18 19 19 20 21 23 23 24 24 24 25 25 26 27 28 29 30 31 32 32
14 13 13 11 9 8 8 9 10 10 9 10 10 11 13 14 14 15 16 18 20 21 22 23 24 25 26 26 28 29 30 31 32 31 32 32 33 34 35 36 37 39 40
19 17 12 11 11 9 8 10 12 13 14 15 15 17 17 19 20 20 21 23 25 26 27 28 30 31 32 33 34 35 36 36 37 39 39 39 40 40 41 42 42 43 45
19 17 14 14 14 11 12 14 15 16 17 18 20 21 22 24 25 26 27 28 29 31 32 32 33 35 37 38 40 40 41 42 42 44 44 45 45 47 47 48 49 50 50
22 20 17 15 13 14 16 19 20 19 20 20 21 21 23 24 26 27 28 30 31 32 34 36 37 38 39 40 42 44 45 46 47 48 49 49 50 52 53 53 54 55 56
20 19 17 17 18 18 19 19 18 18 19 20 22 23 25 27 28 29 31 32 33 35 38 39 41 43 45 46 46 47 49 51 53 54 55 56 57 57 58 58 59 60 61
Wind_Direction
307 305 303 301 298 296 294 293 290 286 282 279 278 275 270 266 264 262 262 261 260 259 258 255 252 247 249 248 246 248 250 248 246 245 248 247 250 253 251 254 259 254 250
306 306 303 300 298 297 296 293 290 286 284 279 273 269 267 264 261 260 260 260 258 259 261 263 265 273 244 248 243 246 251 247 242 238 246 243 244 248 249 250 249 253 254
305 303 300 301 302 301 299 298 296 291 287 281 276 270 263 262 259 257 258 258 259 258 262 264 267 268 267 259 242 254 244 247 245 238 240 241 242 244 244 247 250 247 244
303 302 302 303 305 304 302 299 297 294 290 283 277 268 264 259 258 255 254 255 258 259 260 262 264 265 263 269 272 235 241 244 243 245 238 239 239 237 237 243 242 242 242
302 303 304 305 306 305 306 306 304 296 294 286 277 271 262 256 256 254 253 251 253 257 260 261 263 267 267 263 263 249 241 233 234 239 240 238 238 235 234 235 238 242 244
305 304 304 305 308 308 310 309 305 302 304 299 283 271 261 255 253 252 252 252 252 252 252 253 258 260 261 257 255 258 240 233 230 233 236 235 233 233 231 231 235 241 245
304 307 305 307 309 310 315 307 307 309 305 304 284 266 258 248 249 250 248 247 244 244 246 252 255 254 251 248 249 255 254 246 229 228 231 232 230 232 230 230 236 241 243
306 307 308 309 309 312 315 309 310 314 309 303 279 256 251 247 242 243 245 238 236 243 247 246 249 246 236 236 242 245 247 257 228 225 228 228 230 236 233 235 235 241 248
309 311 310 313 311 315 312 313 313 314 314 301 281 257 261 245 238 243 244 237 237 244 244 244 241 239 232 231 232 249 252 245 222 225 227 227 229 235 236 238 241 243 246
310 311 312 312 310 315 310 314 316 316 286 287 293 261 257 252 248 247 242 232 235 237 234 234 236 227 230 236 224 233 229 222 220 228 226 228 230 235 238 240 242 247 250
309 312 311 308 311 312 313 312 330 320 281 310 287 249 245 254 249 239 233 231 236 242 244 233 229 226 225 237 228 234 233 229 230 233 230 228 233 236 240 245 245 248 251
313 313 310 305 310 308 307 311 327 311 290 277 256 249 241 247 251 253 243 241 238 237 236 236 231 224 224 226 227 226 231 230 229 229 232 233 237 240 241 246 247 250 252
312 310 313 307 303 303 292 316 327 320 299 254 261 233 233 231 228 227 260 257 241 236 244 243 236 231 229 232 232 227 225 227 228 232 235 232 237 243 244 246 247 248 252
311 313 316 314 308 285 290 320 326 341 303 183 256 219 215 232 205 174 165 190 222 229 233 230 230 236 233 237 243 242 245 251 252 247 248 242 244 246 247 252 248 249 255
307 316 321 319 305 273 287 311 322 342 356 34 152 147 185 203 170 130 134 150 241 234 243 244 249 245 238 241 242 240 238 241 246 247 249 251 250 243 245 247 243 250 252
307 320 324 321 292 272 294 296 320 339 348 4 20 46 149 169 160 155 170 177 183 207 235 253 256 254 259 239 249 213 214 239 240 243 251 240 246 262 258 258 263 259 247
309 318 327 320 294 255 271 268 331 335 334 330 347 354 27 41 54 97 125 212 228 236 235 233 238 250 266 265 251 217 187 229 222 219 226 240 244 247 251 253 250 252 252
303 307 328 336 6 284 251 227 301 321 332 344 340 262 302 329 332 329 278 238 278 311 272 251 236 246 271 277 286 278 263 245 250 232 228 235 236 246 246 240 238 231 226
297 298 311 319 340 349 344 360 335 324 324 316 324 334 342 330 311 300 288 280 290 283 278 274 277 275 271 274 280 279 278 290 305 308 270 250 268 277 285 288 278 273 270
289 288 285 290 305 312 298 300 316 330 342 338 331 324 326 324 314 308 301 306 297 286 280 278 275 276 277 279 280 279 273 270 264 260 256 264 271 270 272 266 264 264 265
268 271 273 270 275 280 284 308 299 291 307 307 310 304 299 303 302 298 295 290 287 286 288 288 288 286 283 284 283 283 282 281 279 280 278 273 269 267 265 265 269 267 263
262 262 270 275 276 275 274 276 280 279 281 286 289 293 296 298 298 296 294 293 292 290 289 289 287 285 284 284 283 281 281 281 281 279 276 273 271 270 271 272 272 271 270
262 259 266 269 267 272 285 291 289 289 289 290 290 290 295 298 298 296 294 292 290 289 288 288 289 289 288 286 284 283 283 282 281 280 279 278 278 278 277 276 275 273 272
257 261 271 267 265 269 277 280 277 278 279 283 287 291 291 288 287 287 288 289 288 288 288 286 285 285 284 283 283 283 283 282 281 281 281 280 278 277 276 274 274 273 273
259 266 268 265 266 268 273 276 277 280 286 288 287 286 287 290 293 294 294 294 292 290 289 288 288 286 285 284 284 284 283 282 281 280 278 276 275 275 274 274 273 272 271
260 261 261 270 277 280 284 288 289 290 291 294 296 297 298 297 296 294 292 291 291 290 289 288 287 286 285 284 282 280 279 279 280 279 278 277 277 275 274 272 271 271 271